Гарлява

Литва     54°49′26″N   23°52′28″E
темп.,
°C
ветер,
м/с
пор.,
м/с
влажн.,
%
обл.,
%
осадки,
мм/ч
давл.,
гПа
погр.,
м
18 мая, вт
вт1800:00+11св3493100 0.0 100468
03:00+10ссв3494100 0.0 100481
06:00+10с3794100 0.0 1003184
09:00+13ссв478398 0.0 1003455
12:00+15с6778100 0.1 1004679
15:00+15ссз697054 0.3 10041199
18:00+14с697699 0.0 1004986
21:00+11ссз498191 0.0 1004499
19 мая, ср
ср1900:00+9сз4987100 0.0 1005289
03:00+8зсз41188100 0.0 1004286
06:00+8зсз51188100 0.0 1004326
09:00+11зсз61276100 0.0 1004671
12:00+12зсз5972100 0.0 1005731
15:00+16зсз686399 0.1 10061554
18:00+15зсз687376 0.6 10071058
21:00+12зсз61183100 0.9 1009427
20 мая, чт
чт2000:00+8зсз410956 0.0 1010228
03:00+6з389711 0.0 1011166
06:00+6з379523 0.0 1011159
09:00+11з57735 0.0 1012411
12:00+15з67650 0.0 10121064
15:00+17зсз785560 0.1 10111910
18:00+15зсз77623 0.0 10131492
21:00+11зсз5977100 0.0 1014293
21 мая, пт
пт2100:00+6з410956 0.0 1016248
03:00+4зюз410920 0.0 1016213
06:00+4зюз310920 0.0 1016241
09:00+10зюз58690 0.0 1017683
12:00+13зюз575912 0.0 10171417
15:00+15зюз4656100 0.0 10161806
18:00+16ююз466283 0.0 10151326
21:00+12ююв4778100 0.1 1014111
22 мая, сб
сб2200:00+10ююв51277100 0.0 1013223
03:00+11ююв61672100 0.0 1012492
06:00+12ю71475100 0.1 1011689
09:00+12ю71377100 0.3 1010417
12:00+15ю6117591 0.1 1010512
15:00+20ю6959100 0.1 10091681
18:00+19ююв71162100 0.1 10071237
21:00+16ююв71468100 0.2 1006611